When you browse on this site, cookies collect data to enhance your experience and personalize the content and advertising you see.
Visit our Privacy Policy to learn more. By continuing to use the site, you agree to this use of cookies and data.
  • In Schweiz
  • Länderverzeichnis
  • Für 7 Tage
  • Wassertemperatur
  • Wetterkarte
  • Widgets
  • user-avatar
    Anmelden

    Stündliche Wetter Amen

    Heute, 5 Juni, Freitag

    Zeit Temperatur Niederschläge Wind Luftdruck Luftfeuchtigkeit
    00:00 +10°C° 0 mm 3 m/S 749 mmHg 92%
    01:00 +10°C° 0.1 mm 4 m/S 748 mmHg 93%
    02:00 +8°C° 0.1 mm 4 m/S 747 mmHg 94%
    03:00 +8°C° 0.1 mm 4 m/S 747 mmHg 94%
    04:00 +9°C° 0.5 mm 5 m/S 746 mmHg 94%
    05:00 +9°C° 0.5 mm 6 m/S 746 mmHg 95%
    06:00 +9°C° 0 mm 7 m/S 746 mmHg 95%
    07:00 +10°C° 0.6 mm 7 m/S 745 mmHg 94%
    08:00 +11°C° 0.6 mm 7 m/S 745 mmHg 92%
    09:00 +11°C° 0.6 mm 7 m/S 744 mmHg 91%
    10:00 +12°C° 0.2 mm 8 m/S 745 mmHg 80%
    11:00 +13°C° 0.2 mm 9 m/S 745 mmHg 70%
    12:00 +14°C° 0.2 mm 10 m/S 745 mmHg 59%
    13:00 +14°C° 0.1 mm 10 m/S 745 mmHg 60%
    14:00 +13°C° 0.1 mm 10 m/S 746 mmHg 61%
    15:00 +13°C° 0.1 mm 9 m/S 746 mmHg 63%
    16:00 +13°C° 0.1 mm 8 m/S 746 mmHg 66%
    17:00 +12°C° 0.1 mm 7 m/S 747 mmHg 69%
    18:00 +13°C° 0.1 mm 6 m/S 747 mmHg 73%
    19:00 +10°C° 0.1 mm 6 m/S 747 mmHg 77%
    20:00 +9°C° 0.1 mm 5 m/S 748 mmHg 81%
    21:00 +8°C° 0.1 mm 4 m/S 748 mmHg 85%
    22:00 +8°C° 0.1 mm 4 m/S 748 mmHg 88%
    23:00 +7°C° 0.1 mm 4 m/S 748 mmHg 91%

    Morgen, 6 Juni, Samstag

    Zeit Temperatur Niederschläge Wind Luftdruck Luftfeuchtigkeit
    00:00 +7°C° 0.1 mm 4 m/S 748 mmHg 94%
    01:00 +7°C° 0.1 mm 4 m/S 748 mmHg 94%
    02:00 +7°C° 0.1 mm 4 m/S 748 mmHg 94%
    03:00 +7°C° 0.1 mm 4 m/S 748 mmHg 94%
    04:00 +8°C° 0.2 mm 4 m/S 748 mmHg 92%
    05:00 +8°C° 0.2 mm 5 m/S 748 mmHg 89%
    06:00 +9°C° 0.2 mm 6 m/S 748 mmHg 86%
    07:00 +10°C° 0.1 mm 6 m/S 749 mmHg 79%
    08:00 +11°C° 0.1 mm 7 m/S 749 mmHg 71%
    09:00 +12°C° 0.1 mm 8 m/S 749 mmHg 64%
    10:00 +12°C° 0 mm 8 m/S 749 mmHg 61%
    11:00 +13°C° 0 mm 9 m/S 749 mmHg 58%
    12:00 +13°C° 0 mm 9 m/S 749 mmHg 54%
    13:00 +13°C° 0 mm 9 m/S 749 mmHg 57%
    14:00 +13°C° 0 mm 9 m/S 750 mmHg 59%
    15:00 +13°C° 0 mm 9 m/S 750 mmHg 61%
    16:00 +12°C° 0 mm 8 m/S 750 mmHg 63%
    17:00 +12°C° 0 mm 8 m/S 749 mmHg 66%
    18:00 +11°C° 0 mm 7 m/S 749 mmHg 68%
    19:00 +10°C° 0.2 mm 7 m/S 750 mmHg 73%
    20:00 +10°C° 0.2 mm 7 m/S 750 mmHg 77%
    21:00 +10°C° 0.2 mm 7 m/S 750 mmHg 82%
    22:00 +9°C° 0.6 mm 6 m/S 750 mmHg 86%
    23:00 +9°C° 0.6 mm 6 m/S 750 mmHg 90%

    übermorgen, 7 Juni, Sonntag

    Zeit Temperatur Niederschläge Wind Luftdruck Luftfeuchtigkeit
    00:00 +9°C° 0.6 mm 5 m/S 750 mmHg 94%
    01:00 +9°C° 0 mm 5 m/S 751 mmHg 95%
    02:00 +8°C° 0 mm 5 m/S 751 mmHg 95%
    03:00 +8°C° 0 mm 4 m/S 751 mmHg 95%
    04:00 +10°C° 0 mm 4 m/S 752 mmHg 94%
    05:00 +10°C° 0 mm 4 m/S 752 mmHg 93%
    06:00 +11°C° 0 mm 4 m/S 752 mmHg 93%
    07:00 +12°C° 0 mm 3 m/S 753 mmHg 83%
    08:00 +14°C° 0 mm 3 m/S 753 mmHg 74%
    09:00 +16°C° 0 mm 3 m/S 754 mmHg 65%
    10:00 +17°C° 0 mm 2 m/S 754 mmHg 63%
    11:00 +17°C° 0 mm 2 m/S 754 mmHg 60%
    12:00 +18°C° 0 mm 2 m/S 754 mmHg 57%
    13:00 +18°C° 0.2 mm 2 m/S 754 mmHg 61%
    14:00 +18°C° 0.2 mm 2 m/S 754 mmHg 64%
    15:00 +18°C° 0.2 mm 2 m/S 754 mmHg 68%
    16:00 +17°C° 0.1 mm 2 m/S 754 mmHg 70%
    17:00 +18°C° 0.1 mm 1 m/S 754 mmHg 73%
    18:00 +18°C° 0.1 mm 1 m/S 754 mmHg 75%
    19:00 +15°C° 0 mm 1 m/S 755 mmHg 80%
    20:00 +13°C° 0 mm 1 m/S 755 mmHg 85%
    21:00 +10°C° 0 mm 2 m/S 756 mmHg 89%
    22:00 +11°C° 0 mm 1 m/S 756 mmHg 90%
    23:00 +10°C° 0 mm 1 m/S 756 mmHg 90%

    8 Juni, Montag

    Zeit Temperatur Niederschläge Wind Luftdruck Luftfeuchtigkeit
    00:00 +10°C° 0 mm 1 m/S 756 mmHg 91%
    01:00 +10°C° 0 mm 1 m/S 756 mmHg 91%
    02:00 +9°C° 0 mm 1 m/S 756 mmHg 90%
    03:00 +9°C° 0 mm 1 m/S 757 mmHg 90%
    04:00 +10°C° 0 mm 1 m/S 757 mmHg 89%
    05:00 +11°C° 0 mm 1 m/S 757 mmHg 87%
    06:00 +12°C° 0 mm 1 m/S 757 mmHg 85%
    07:00 +14°C° 0 mm 1 m/S 758 mmHg 79%
    08:00 +15°C° 0 mm 1 m/S 758 mmHg 74%
    09:00 +18°C° 0 mm 1 m/S 758 mmHg 68%
    10:00 +18°C° 0.7 mm 2 m/S 758 mmHg 67%
    11:00 +19°C° 0.7 mm 2 m/S 758 mmHg 67%
    12:00 +19°C° 0.7 mm 2 m/S 758 mmHg 66%
    13:00 +19°C° 1 mm 2 m/S 758 mmHg 67%
    14:00 +19°C° 1 mm 2 m/S 758 mmHg 69%
    15:00 +20°C° 1 mm 3 m/S 758 mmHg 70%
    16:00 +19°C° 0.9 mm 3 m/S 758 mmHg 75%
    17:00 +18°C° 0.9 mm 4 m/S 758 mmHg 80%
    18:00 +17°C° 0.9 mm 4 m/S 758 mmHg 85%
    19:00 +14°C° 0.2 mm 4 m/S 759 mmHg 88%
    20:00 +13°C° 0.2 mm 4 m/S 759 mmHg 91%
    21:00 +11°C° 0.2 mm 4 m/S 759 mmHg 94%
    22:00 +11°C° 0 mm 4 m/S 759 mmHg 95%
    23:00 +10°C° 0 mm 3 m/S 760 mmHg 95%

    9 Juni, Dienstag

    Zeit Temperatur Niederschläge Wind Luftdruck Luftfeuchtigkeit
    00:00 +10°C° 0 mm 3 m/S 760 mmHg 96%
    01:00 +10°C° 0 mm 3 m/S 760 mmHg 96%
    02:00 +10°C° 0 mm 3 m/S 760 mmHg 97%
    03:00 +10°C° 0 mm 2 m/S 760 mmHg 97%
    04:00 +11°C° 0 mm 3 m/S 760 mmHg 96%
    05:00 +11°C° 0 mm 3 m/S 760 mmHg 94%
    06:00 +12°C° 0 mm 3 m/S 760 mmHg 93%
    07:00 +14°C° 0.1 mm 3 m/S 760 mmHg 87%
    08:00 +16°C° 0.1 mm 3 m/S 761 mmHg 80%
    09:00 +18°C° 0.1 mm 3 m/S 761 mmHg 74%
    10:00 +18°C° 0.4 mm 4 m/S 761 mmHg 74%
    11:00 +19°C° 0.4 mm 4 m/S 761 mmHg 73%
    12:00 +19°C° 0.4 mm 4 m/S 761 mmHg 73%
    13:00 +19°C° 0.4 mm 5 m/S 761 mmHg 74%
    14:00 +19°C° 0.4 mm 6 m/S 761 mmHg 75%
    15:00 +19°C° 0.4 mm 6 m/S 760 mmHg 77%
    16:00 +17°C° 0.1 mm 6 m/S 761 mmHg 78%
    17:00 +16°C° 0.1 mm 6 m/S 761 mmHg 79%
    18:00 +16°C° 0.1 mm 6 m/S 761 mmHg 80%
    19:00 +14°C° 0 mm 6 m/S 762 mmHg 83%
    20:00 +12°C° 0 mm 5 m/S 762 mmHg 86%
    21:00 +10°C° 0 mm 5 m/S 763 mmHg 89%
    22:00 +9°C° 0 mm 5 m/S 763 mmHg 90%
    23:00 +9°C° 0 mm 5 m/S 763 mmHg 90%

    10 Juni, Mittwoch

    Zeit Temperatur Niederschläge Wind Luftdruck Luftfeuchtigkeit
    00:00 +8°C° 0 mm 5 m/S 763 mmHg 91%
    01:00 +8°C° 0 mm 4 m/S 763 mmHg 92%
    02:00 +8°C° 0 mm 4 m/S 763 mmHg 92%
    03:00 +8°C° 0 mm 4 m/S 763 mmHg 93%
    04:00 +8°C° 0 mm 4 m/S 764 mmHg 90%
    05:00 +9°C° 0 mm 5 m/S 764 mmHg 87%
    06:00 +10°C° 0 mm 5 m/S 764 mmHg 85%
    07:00 +13°C° 0 mm 5 m/S 764 mmHg 81%
    08:00 +14°C° 0 mm 5 m/S 764 mmHg 77%
    09:00 +16°C° 0 mm 5 m/S 764 mmHg 74%
    10:00 +17°C° 0 mm 5 m/S 764 mmHg 71%
    11:00 +19°C° 0 mm 5 m/S 764 mmHg 68%
    12:00 +20°C° 0 mm 5 m/S 764 mmHg 66%
    13:00 +20°C° 0 mm 6 m/S 764 mmHg 66%
    14:00 +20°C° 0 mm 6 m/S 764 mmHg 66%
    15:00 +20°C° 0 mm 6 m/S 764 mmHg 65%
    16:00 +19°C° 0 mm 6 m/S 764 mmHg 67%
    17:00 +17°C° 0 mm 6 m/S 764 mmHg 69%
    18:00 +16°C° 0 mm 6 m/S 764 mmHg 71%
    19:00 +14°C° 0 mm 5 m/S 764 mmHg 77%
    20:00 +12°C° 0 mm 5 m/S 765 mmHg 82%
    21:00 +10°C° 0 mm 4 m/S 765 mmHg 88%
    22:00 +10°C° 0 mm 4 m/S 765 mmHg 90%
    23:00 +8°C° 0 mm 4 m/S 765 mmHg 92%
    Mehr zeigen